This is the latest recevied weather packets stored in our database for station/object JG6YPS-13. If no packets are shown the sender has not sent any weather packets the latest 1 day(s).
| Time | Temp. | Humidity | Pressure | Rain* | Wind** | Luminosity | Snow |
|---|---|---|---|---|---|---|---|
| 1778036764 | 23.33° C | 62% | 1017.6 hPa | 0 mm | 0.45 m/s, 135° | - | - |
| 1778036164 | 23.33° C | 60% | 1017.5 hPa | 0 mm | 0.89 m/s, 135° | - | - |
| 1778035565 | 23.33° C | 60% | 1017.6 hPa | 0 mm | 0.89 m/s, 45° | - | - |
| 1778034965 | 24.44° C | 58% | 1017.5 hPa | 0 mm | 0.89 m/s, 270° | - | - |
| 1778034365 | 23.33° C | 61% | 1017.7 hPa | 0 mm | 0 m/s | - | - |
| 1778033765 | 23.33° C | 61% | 1018 hPa | 0 mm | 0.89 m/s, 45° | - | - |
| 1778033165 | 22.22° C | 64% | 1017.9 hPa | 0 mm | 0 m/s | - | - |
| 1778032565 | 22.22° C | 63% | 1018.2 hPa | 0 mm | 0 m/s | - | - |
| 1778031966 | 22.22° C | 61% | 1018.2 hPa | 0 mm | 0 m/s | - | - |
| 1778031366 | 21.67° C | 61% | 1018.7 hPa | 0 mm | 0 m/s | - | - |
| 1778030767 | 21.67° C | 66% | 1019 hPa | 0 mm | 0 m/s | - | - |
| 1778030167 | 20° C | 66% | 1019 hPa | 0 mm | 0 m/s | - | - |
| 1778029567 | 18.33° C | 72% | 1019.1 hPa | 0 mm | 0.45 m/s, 315° | - | - |
| 1778028968 | 18.89° C | 70% | 1018.9 hPa | 0 mm | 0.45 m/s, 0° | - | - |
| 1778028369 | 19.44° C | 70% | 1018.6 hPa | 0 mm | 0.45 m/s, 315° | - | - |
| 1778027768 | 19.44° C | 69% | 1018.6 hPa | 0 mm | 0 m/s | - | - |
| 1778027169 | 18.89° C | 72% | 1019.2 hPa | 0 mm | 0 m/s | - | - |
| 1778026569 | 18.33° C | 74% | 1019 hPa | 0 mm | 0 m/s | - | - |
| 1778025970 | 17.78° C | 77% | 1018.9 hPa | 0 mm | 0 m/s | - | - |
| 1778025370 | 16.67° C | 80% | 1019 hPa | 0 mm | 0 m/s | - | - |
| 1778024771 | 16.11° C | 80% | 1019.1 hPa | 0 mm | 0 m/s | - | - |
| 1778024171 | 16.67° C | 79% | 1018.8 hPa | 0 mm | 0 m/s | - | - |
| 1778023572 | 16.11° C | 79% | 1018.8 hPa | 0 mm | 0 m/s | - | - |
| 1778022972 | 16.11° C | 78% | 1018.6 hPa | 0 mm | 0 m/s | - | - |
| 1778022373 | 16.67° C | 76% | 1018.5 hPa | 0 mm | 0 m/s | - | - |
* Rain latest hour (hover to see other rain measurements)
** Current wind speed in m/s (hover to see current wind gust speed)